EW7287 Weather Reports


time (UTC)temp
C
wind
direction
speed
KPH
gust
KPH
rain 1hr
cm
rain 24hr
cm
rain mn
cm
humidity
%
barometer
mb
20260504050000 5 286 0.0 0.0 0.00 0.00 0.00 80 1016.8
20260504044605 5 286 0.0 0.0 0.00 0.00 0.00 80 1016.8
20260504043059 5 286 0.0 0.0 0.00 0.00 0.00 79 1016.8
20260504041554 6 286 0.0 0.0 0.00 0.00 0.00 75 1016.7
20260504040052 6 286 0.0 0.0 0.00 0.00 0.00 75 1016.6
20260504034607 6 286 0.0 0.0 0.00 0.00 0.00 76 1016.3
20260504033051 6 286 0.0 0.0 0.00 0.00 0.00 76 1016.3
20260504031551 7 286 0.0 0.0 0.00 0.00 0.00 74 1016.3
20260504030050 7 286 0.0 0.0 0.00 0.00 0.00 71 1016.2
20260504024550 7 286 0.0 0.0 0.00 0.00 0.00 68 1016.2
20260504023049 7 286 0.0 0.0 0.00 0.00 0.00 69 1016.1
20260504021548 8 286 0.0 0.0 0.00 0.00 0.00 63 1016.0
20260504020048 8 286 0.0 0.0 0.00 0.00 0.00 62 1016.0
20260504014600 8 286 0.0 0.0 0.00 0.00 0.00 62 1015.9
20260504013051 9 286 0.0 0.0 0.00 0.00 0.00 56 1015.9
20260504011546 10 286 0.0 0.0 0.00 0.00 0.00 54 1015.8
20260504010048 10 286 0.0 0.0 0.00 0.00 0.00 51 1015.6
20260504004547 11 286 0.0 0.0 0.00 0.00 0.00 49 1015.5
20260504003050 12 286 0.0 1.6 0.00 0.00 0.00 44 1015.3
20260504001545 13 286 1.6 4.8 0.00 0.00 0.00 40 1015.2
20260504000047 13 286 1.6 4.8 0.00 0.00 0.00 37 1015.1
20260503234548 14 286 6.4 14.5 0.00 0.00 0.00 36 1015.0
20260503233042 15 294 8.0 16.1 0.00 0.00 0.00 34 1014.8
20260503231542 15 333 6.4 20.9 0.00 0.00 0.00 34 1014.7
20260503230045 15 298 9.7 17.7 0.00 0.00 0.00 33 1014.7
20260503224641 15 296 11.3 25.7 0.00 0.00 0.00 33 1014.7
20260503223040 15 267 17.7 29.0 0.00 0.00 0.00 33 1014.7
20260503221539 15 293 14.5 20.9 0.00 0.00 0.00 33 1014.8
20260503220046 15 341 11.3 25.7 0.00 0.00 0.00 34 1014.8
20260503214538 15 271 22.5 37.0 0.00 0.00 0.00 33 1014.9
20260503213037 15 305 20.9 46.7 0.00 0.00 0.00 33 1014.7
20260503211536 15 289 22.5 33.8 0.00 0.00 0.00 32 1014.7
20260503210038 15 345 22.5 30.6 0.00 0.00 0.00 32 1014.8
20260503204535 14 297 14.5 33.8 0.00 0.00 0.00 34 1014.8
20260503203034 14 286 14.5 30.6 0.00 0.00 0.00 32 1014.9
20260503201533 14 306 14.5 37.0 0.00 0.00 0.00 33 1014.9
20260503200030 13 290 19.3 33.8 0.00 0.00 0.00 32 1015.1
20260503194527 13 257 11.3 27.4 0.00 0.00 0.00 35 1015.3
20260503193029 13 285 17.7 38.6 0.00 0.00 0.00 38 1015.6
20260503191522 13 248 24.1 46.7 0.00 0.00 0.00 36 1015.7
20260503190020 12 261 12.9 37.0 0.00 0.00 0.00 37 1015.7
20260503184518 12 330 17.7 32.2 0.00 0.00 0.00 38 1015.9
20260503183024 12 311 19.3 33.8 0.00 0.00 0.00 39 1016.3
20260503181515 12 275 24.1 35.4 0.00 0.00 0.00 40 1016.3
20260503180018 12 330 22.5 33.8 0.00 0.00 0.00 39 1016.4
20260503174512 11 254 14.5 40.2 0.00 0.00 0.00 42 1016.5
20260503173011 11 238 19.3 37.0 0.00 0.00 0.00 43 1016.6
20260503171509 11 325 25.7 37.0 0.00 0.00 0.00 41 1016.7
20260503081515 4 272 11.3 20.9 0.00 0.00 0.00 75 1014.9
20260503071508 5 294 9.7 16.1 0.00 0.00 0.00 72 1014.3